Location: *
(50.5492°N, 7.7469°E)
Time: 15:50:24
(UTC+00:00)

Cosmos 1833 Rocket - Pass Details

Date: 21 October 2019
Orbit: 833 x 839 km, 71.0° (Epoch: 18 November)

Event Time Altitude Azimuth Distance (km) Brightness Sun altitude
Rises 17:24:59 0° 330° (NNW) 3,394 6.2 -10.1°
Reaches altitude 10° 17:27:26 10° 331° (NNW) 2,456 5.5 -10.5°
Maximum altitude 17:33:05 87° 60° (ENE) 844 2.7 -11.4°
Drops below altitude 10° 17:38:43 10° 151° (SSE) 2,445 4.8 -12.3°
Sets 17:41:09 0° 152° (SSE) 3,376 5.6 -12.7°
